DECAYED

STARLINK-3557, 51802 (Decayed)

Orbit data source: Space-Track

STARLINK-3557, 51802 was a payload satellite owned by SpaceX/Seattle (US) in LEO that was launched on Fri, 25 Feb 2022 UTC via an FALCON 9 launch vehicle from the Air Force Western Test Range (AFWTR). Payload-class satellites include a variety of spacecraft equipped with specific instruments for various scientific and technological missions. These include communications satellites like Starlink; space stations such as the ISS; scientific satellites like the Hubble; Earth observation satellites from companies like Planet Labs, Umbra, and HawkEye 360; GPS; miniature CubeSats for education and research; and military/defense satellites.

Not visible in the next 10 days
Identifier
51802, 2022-017AL
Orbit
Decayed
Country
Flag of USUS
Related business
Manufacturer
SpaceX/Seattle
Mission
Decayed Commercial Communications
Bus & Motor
STARLINK, Unknown motor
Mass
297 kg wet, ~275 kg dry
Launch date (UTC)
2022-02-25 (4 years ago)
Launch vehicle
FALCON 9
Launch site
Air Force Western Test Range (AFWTR)
Object type
Payload
Rocket body
Debris
Shape & HBR
Box + 1 Pan, 10.1 m
Radar Cross Section
13.562 m², Large (>1 m²)

Expand to show TLE details & history
Last TLE update: 6 months ago

TLE from 6 months ago
0 STARLINK-3557
1 51802U 22017AL  25359.10447985  .15433827  12525-4  40349-3 0  9995
2 51802  53.1754 250.2966 0004404 284.1338  75.9223 16.45628841213698
Epoch: 2025-12-25T02:30Z
TLE epoch observation values (Epoch: 2025-12-25T02:30:27.059Z)
Latitude
-0.00001°
Longitude
118.81954°
Altitude
151.119 km
Speed
7.817 km/s
True Right ascension
16h 41m 11s
True Declination
0° 00' 00"
Sunlit
Object was in daylight at epoch
Visualization orbit readout
Latitude
Unknown
Longitude
Unknown
Altitude
Unknown
Speed
Unknown
Apparent Right ascension
Unknown
Apparent Declination
Unknown
Sunlit
N/A
Visualization observer readout
Local Sidereal Time
21:31:13
Azimuth
Unknown
Elevation
Unknown
Doppler factor
Unknown
Orbital elements
Apogee altitude
154.013 km
Perigee altitude
148.262 km
Semi-major axis
6,529.275 km
Eccentricity
0.00044
Inclination
53.1754°
RAAN
250.2966°
Arg. of periapsis
284.1338°
True anomaly
75.97126°
Mean anomaly
75.9223°
Eccentric anomaly
75.94678°
Mean motion
4.11382 °/min
Orbital period
87.51 mins
BSTAR
0.00040349
Loading maneuver chart data...
Computing Atmospheric mass density...
Loading historical data...
Loading historical data...
Loading historical data...
Loading historical data...
Loading historical data...
Loading historical data...
Loading historical data...

Documentation

Showing up to 5 results
|